Pierre, SD

6:24 PM CDT on May 29, 2017 (GMT -0500)
Pierre Regional

Weather History for KPIR - November, 2012

Change the Weather History Date:

Friday, November 2, 2012

  Actual Average Record
Temperature  
Mean Temperature 34 °F 41 °F  
Max Temperature 41 °F 52 °F 77 °F (1965)
Min Temperature 27 °F 30 °F 4 °F (1991)
Degree Days  
Heating Degree Days 31 24  
Month to date heating degree days 56 48  
Since 1 July heating degree days 711 729  
Cooling Degree Days 0 0  
Month to date cooling degree days 0 0  
Year to date cooling degree days 1112 868  
Moisture  
Dew Point 26 °F    
Average Humidity 72    
Maximum Humidity 85    
Minimum Humidity 59    
Precipitation  
Precipitation T in 0.03 in 1.77 in (1956)
Month to date precipitation T 0.06  
Year to date precipitation 10.46 18.76  
Snow  
Snow 0.00 in 0.10 in 2.50 in (1936)
Month to date snowfall 0.0 0.2  
Since 1 July snowfall 0.0 1.2  
Snow Depth 0.00 in    
Sea Level Pressure  
Sea Level Pressure 30.05 in    
Wind  
Wind Speed 6 mph (ENE)    
Max Wind Speed 18 mph    
Max Gust Speed 22 mph    
Visibility 10 miles    
Events      
T = Trace of Precipitation, MM = Missing Value Source: NWS Daily Summary

Daily Weather History Graph

Daily Weather History Graph

Search for Another Location

Airport or City:

Trip Planner

Search our weather history database for the weather conditions in past years. The results will help you decide how hot, cold, wet, or windy it might be!

Date:

Astronomy

Nov. 02, 2012 Rise Set
Actual Time 8:20 AM CDT 6:28 PM CDT
Civil Twilight 7:50 AM CDT 6:58 PM CDT
Nautical Twilight 7:15 AM CDT 7:33 PM CDT
Astronomical Twilight 6:41 AM CDT 8:06 PM CDT
Moon 9:12 PM CDT (11/2) 11:47 AM CDT (11/2)
Length of Visible Light 11h 08m
Length of Day
10h 07m
Waning Gibbous, 87% of the Moon is Illuminated
Nov 2
Waning Gibbous
Nov 6
Last Quarter
Nov 13
New
Nov 20
First Quarter
Nov 28
Full

Hourly Weather History & Observations

Time (CDT) Temp. Windchill Dew Point Humidity Pressure Visibility Wind Dir Wind Speed Gust Speed Precip Events Conditions
12:53 AM 34.0 °F 24.2 °F 24.1 °F 67% 29.94 in 10.0 mi East 15.0 mph - N/A   Clear
1:53 AM 34.0 °F 24.2 °F 24.1 °F 67% 29.94 in 10.0 mi East 15.0 mph - N/A   Clear
2:53 AM 33.1 °F 23.0 °F 24.1 °F 70% 29.93 in 10.0 mi East 15.0 mph - N/A   Clear
3:53 AM 30.9 °F 21.2 °F 23.0 °F 72% 29.95 in 10.0 mi East 12.7 mph - N/A   Clear
4:53 AM 30.0 °F 20.5 °F 23.0 °F 75% 29.95 in 10.0 mi ENE 11.5 mph - N/A   Mostly Cloudy
5:39 AM 28.4 °F 18.0 °F 23.0 °F 80% 29.92 in 10.0 mi ENE 12.7 mph - N/A   Overcast
5:53 AM 30.0 °F 20.5 °F 23.0 °F 75% 29.97 in 10.0 mi ENE 11.5 mph - N/A   Overcast
6:53 AM 30.9 °F 20.7 °F 23.0 °F 72% 29.99 in 10.0 mi ENE 13.8 mph - N/A   Overcast
7:53 AM 30.9 °F 22.8 °F 23.0 °F 72% 30.02 in 10.0 mi NE 9.2 mph - N/A   Overcast
8:53 AM 30.9 °F 22.8 °F 23.0 °F 72% 30.05 in 10.0 mi NE 9.2 mph - N/A   Overcast
9:53 AM 30.9 °F 22.2 °F 24.1 °F 76% 30.07 in 10.0 mi NE 10.4 mph - N/A   Overcast
10:53 AM 34.0 °F 25.0 °F 25.0 °F 70% 30.05 in 10.0 mi ENE 12.7 mph - N/A   Overcast
11:53 AM 34.0 °F - 25.0 °F 70% 30.10 in 10.0 mi Calm Calm - N/A   Overcast
12:53 PM 35.1 °F 32.2 °F 25.0 °F 67% 30.10 in 10.0 mi Variable 3.5 mph - N/A   Overcast
1:53 PM 36.0 °F 33.3 °F 26.1 °F 67% 30.09 in 10.0 mi Variable 3.5 mph - N/A   Overcast
2:53 PM 39.9 °F 36.7 °F 27.0 °F 60% 30.08 in 10.0 mi WNW 4.6 mph - N/A   Mostly Cloudy
3:53 PM 39.0 °F - 28.0 °F 65% 30.07 in 10.0 mi Calm Calm - N/A   Overcast
4:53 PM 41.0 °F 35.8 °F 28.9 °F 62% 30.08 in 10.0 mi WNW 8.1 mph - N/A   Overcast
5:40 PM 41.0 °F - 28.4 °F 61% 30.03 in 10.0 mi Calm Calm - N/A   Scattered Clouds
5:53 PM 39.9 °F - 28.9 °F 65% 30.07 in 10.0 mi Calm Calm - N/A   Clear
6:53 PM 33.1 °F - 26.1 °F 75% 30.12 in 10.0 mi Calm Calm - N/A   Mostly Cloudy
7:53 PM 35.1 °F - 28.0 °F 76% 30.12 in 10.0 mi Calm Calm - N/A   Mostly Cloudy
8:36 PM 33.8 °F - 28.4 °F 81% 30.07 in 10.0 mi Calm Calm - N/A   Scattered Clouds
8:53 PM 36.0 °F - 28.9 °F 76% 30.12 in 10.0 mi Calm Calm - N/A   Clear
9:53 PM 28.0 °F - 24.1 °F 85% 30.14 in 10.0 mi Calm Calm - N/A   Partly Cloudy
10:51 PM 30.2 °F - 24.8 °F 80% 30.10 in 10.0 mi Calm Calm - N/A   Overcast
10:53 PM 30.9 °F - 25.0 °F 79% 30.15 in 10.0 mi Calm Calm - N/A   Overcast
11:53 PM 35.1 °F - 30.0 °F 82% 30.14 in 10.0 mi Calm Calm - 0.00 in   Overcast